Regional Weather Roundup
Issued by NWS

Home | Current Version | Previous Version | Graphics & Text | Print | Product List | Glossary On
Versions: 1 2 3 4 5 6 7 8 9 10 11 12 13 14 15 16 17 18 19 20 21 22 23 24 25 26 27 28 29 30 31 32 33 34 35 36 37 38 39 40 41 42 43 44 45 46 47 48 49 50
000
ASUS44 KMEG 271000
RWRTN
TENNESSEE HOURLY STATE WEATHER ROUNDUP
NATIONAL WEATHER SERVICE MEMPHIS TN
500 AM CDT TUE SEP 27 2016

TNZ002-004-019-021-049-052-054-088>092-271100-
WEST TENNESSEE

CITY           SKY/WX    TMP DP  RH WIND       PRES   REMARKS
MEMPHIS INTL   PTCLDY    60  56  86 N5        30.07R
NWS MEMPHIS      N/A     56 N/A N/A MISG        N/A
JACKSON          N/A    N/A N/A N/A MISG      30.06F
DYERSBURG      PTCLDY   N/A N/A N/A MISG        N/A
UNION CITY       N/A     45  45 100 CALM      30.05F VSB 1
PARIS          CLEAR     43  43 100 CALM      30.06F
LEXINGTON      CLEAR     52  52 100 CALM      30.05S
$$

TNZ008-025-027-028-033-062-065-066-271100-
NORTH MIDDLE TENNESSEE

CITY           SKY/WX    TMP DP  RH WIND       PRES   REMARKS
NASHVILLE      CLEAR     56  52  86 CALM      30.06S
CLARKSVILLE    FOG       46  45  96 CALM      30.06S VSB 1/2
SMYRNA         CLEAR     55  53  93 CALM      30.06S
COOKEVILLE     CLOUDY    61  55  82 N3        30.03S
CROSSVILLE     CLOUDY    57  56  96 N6        30.05S
$$

TNZ061-075-076-078-094-096-097-271100-
SOUTH MIDDLE TENNESSEE

CITY           SKY/WX    TMP DP  RH WIND       PRES   REMARKS
TULLAHOMA      CLOUDY    61  54  77 N6        30.05R
WINCHESTER     CLOUDY    63  59  88 N8        30.03R
MCMINNVILLE    CLOUDY    61  55  82 N7        30.04S
COLUMBIA       CLEAR    N/A N/A N/A CALM      30.04S
SHELBYVILLE    CLOUDY    61  57  88 CALM      30.05S
$$

TNZ017-018-042-046-047-271100-
NORTHEAST TENNESSEE

CITY           SKY/WX    TMP DP  RH WIND       PRES   REMARKS
TRI CITIES     CLOUDY    66  64  93 N5        30.00F
$$

TNZ012-013-036-069-073-074-271100-
CENTRAL EAST TENNESSEE

CITY           SKY/WX    TMP DP  RH WIND       PRES   REMARKS
KNOXVILLE      LGT RAIN  66  62  87 N5        30.00R
OAK RIDGE      CLOUDY    65  59  81 VRB6      30.02S
GATLINBURG     CLOUDY    66  64  94 NW6       30.00R
$$

TNZ083-085-099-271100-
SOUTHEAST TENNESSEE

CITY           SKY/WX    TMP DP  RH WIND       PRES   REMARKS
CHATTANOOGA    CLOUDY    70  66  87 NW3       29.99S
$$

SKY/WX REPORTED AS FAIR MEANS FEW OR NO CLOUDS BELOW
12 THOUSAND FEET.





USA.gov is the U.S. government's official web portal to all federal, state and local government web resources and services.